Погода в Кенхах

Россия / Чеченская Республика     42°38′20″N   45°56′53″E
темп.,
°C
ветер,
м/с
пор.,
м/с
влажн.,
%
обл.,
%
осадки,
мм/ч
давл.,
гПа
погр.,
м
24 января, пн
пн2400:00−6ю44667 0.0 101450
03:00−6ю33692 0.0 101436
06:00−7ю32671 0.0 101627
09:00−2ююз34715 0.0 101475
12:00+1ююз34701 0.0 1012470
15:00+1ююз13663 0.0 1013405
18:00−6ююз227497 0.0 101921
21:00−7ююз33720 0.0 102127
25 января, вт
вт2500:00−8ю33670 0.0 102229
03:00−9ю23700 0.0 102328
06:00−10ю22730 0.0 102421
09:00−6юз117268 0.0 102276
12:00−4сз228798 0.4 1021389
15:00−6ссз328666 0.9 1023378
18:00−10сз229487 0.3 1027129
21:00−12ю119530 0.4 102826
26 января, ср
ср2600:00−11ююв22813 0.0 102627
03:00−11ююв22885 0.0 102518
06:00−11ююв22865 0.0 102329
09:00−7ю12794 0.0 102096
12:00−2ююв13662 0.0 1014460
15:00−2юв12726 0.0 1013341
18:00−9ю019466 0.0 101954
21:00−11ююв118793 0.1 101916
27 января, чт
чт2700:00−11ююв118759 0.0 101913
03:00−12ю019144 0.0 101910
06:00−12зсз1195100 0.0 102050
09:00−9з1188100 0.1 1018133
12:00−6сз2281100 0.0 1015453
15:00−6ссз2285100 0.1 1014458
18:00−8сз2296100 0.1 1018142
21:00−9сз239590 0.6 1019167
28 января, пт
пт2800:00−12з229784 0.1 102246
03:00−10зсз129695 0.3 102257
06:00−11зсз119795 0.3 102335
09:00−9сз118999 0.4 1023218
12:00−7с2178100 0.1 1021627
15:00−6ссв2187100 0.4 1021408
18:00−10ю229678 0.2 102517
21:00−13ю338465 0.2 102839